Cosmos 1937 Rocket - Orbit

View from above orbital plane
View from above orbital plane
View from above satellite
View from above satellite

Ground track
Ground track

The orbit data is extracted from the following two-line orbital elements,

1 19039U 88029B   13139.21851758  .00000269  00000-0  97905-4 0  7475
2 19039 074.0470 162.1995 0024553 341.9509 087.1368 14.37786455316664
Epoch (UTC): 19 May 2013 05:14:39
Eccentricity: 0.0024553
inclination: 74.0470°
perigee height: 748 km
apogee height: 783 km
right ascension of ascending node: 162.1995°
argument of perigee: 341.9509°
revolutions per day: 14.37786455
mean anomaly at epoch: 87.1368°
orbit number at epoch: 31666

The dashed part of the orbit path shows where the satellite is in the earth's shadow,  

Developed and maintained by Chris Peat, Heavens-Above GmbH. Please read the updated FAQ before sending e-mail. Imprint. DLR